SDA-1665

operational
NORAD ID: 65975 Int'l Des: 2025-230 Owner: SDA Country: US
NOTLE

About SDA-1665

Description loading...

Live Position

Loading 3D Globe...

Upcoming Passes

Altitude History

Altitude vs Time

uPlot chart will show altitude changes over time

Two-Line Element Set

1 65975U 25230B 25318.39932227 .00000314 00000-0 26521-3 0 9997
2 65975 81.3041 50.8754 0004987 83.7532 276.4193 13.85429377 4089
Epoch: Nov 14, 2025 • Age: 18 hours

Current Status

Altitude 952.1 km
Velocity 7.38 km/s
Sub-Earth Point 61.07°N, 107.49°E
Launch Date Oct 14, 2025
Age 32 days
Type other

Technical Details

Classification Payload
Mass 400.00 kg
Dry Mass 400.00 kg
Total Mass 400.00 kg
Length 0.60 m
Diameter 0.40 m
Span 3.60 m
Shape Box + panels
Manufacturer LMSSD/TERRAN
Bus Type LM-T1TL
Phase Status In Orbit
Owner/State SDA/US

Large Constellations

Loading constellations...